Year,Month,Day,Hour,Minute,Value (Times are PST for barometer in hPa)
2008,01,04,00,10,992.40
2008,01,04,00,11,992.40
2008,01,04,00,12,992.40
2008,01,04,00,13,992.40
2008,01,04,00,14,992.40
2008,01,04,00,15,992.40
2008,01,04,00,16,992.40
2008,01,04,00,17,992.40
2008,01,04,00,18,992.40
2008,01,04,00,19,992.40
2008,01,04,00,20,992.40
2008,01,04,00,21,992.40
2008,01,04,00,22,992.40
2008,01,04,00,23,992.40
2008,01,04,00,24,992.40
2008,01,04,00,25,992.40
2008,01,04,00,26,992.40
2008,01,04,00,27,992.30
2008,01,04,00,28,992.30
2008,01,04,00,29,992.30
2008,01,04,00,30,992.30
2008,01,04,00,31,992.30
2008,01,04,00,32,992.30
2008,01,04,00,33,992.30
2008,01,04,00,34,992.30
2008,01,04,00,35,992.30
2008,01,04,00,36,992.30
2008,01,04,00,37,992.30
2008,01,04,00,38,992.30
2008,01,04,00,39,992.30
2008,01,04,00,40,992.30
2008,01,04,00,41,992.30
2008,01,04,00,42,992.30
2008,01,04,00,43,992.30
2008,01,04,00,44,992.30
2008,01,04,00,45,992.30
2008,01,04,00,46,992.30
2008,01,04,00,47,992.30
2008,01,04,00,48,992.30
2008,01,04,00,49,992.30
2008,01,04,00,50,992.30
2008,01,04,00,51,991.70
2008,01,04,00,52,991.70
2008,01,04,00,53,991.70
2008,01,04,00,54,991.70
2008,01,04,00,55,991.70
2008,01,04,00,56,991.70
2008,01,04,00,57,991.70
2008,01,04,00,58,991.70
2008,01,04,00,59,991.70
2008,01,04,01,00,991.70
2008,01,04,01,01,991.70
2008,01,04,01,02,991.70
2008,01,04,01,03,991.70
2008,01,04,01,05,991.70
2008,01,04,01,06,991.70
2008,01,04,01,07,991.70
2008,01,04,01,08,991.20
2008,01,04,01,09,991.20
2008,01,04,01,10,991.20
2008,01,04,01,11,991.20
2008,01,04,01,12,991.20
2008,01,04,01,13,991.20
2008,01,04,01,14,991.20
2008,01,04,01,15,991.20
2008,01,04,01,16,991.20
2008,01,04,01,17,991.20
2008,01,04,01,18,991.20
2008,01,04,01,19,991.20
2008,01,04,01,20,991.20
2008,01,04,01,21,991.20
2008,01,04,01,22,991.20
2008,01,04,01,23,991.20
2008,01,04,01,24,991.20
2008,01,04,01,25,991.20
2008,01,04,01,26,991.20
2008,01,04,01,27,991.20
2008,01,04,01,28,991.20
2008,01,04,01,29,991.20
2008,01,04,01,31,991.20
2008,01,04,01,32,991.20
2008,01,04,01,33,991.20
2008,01,04,01,34,991.20
2008,01,04,01,36,990.70
2008,01,04,01,37,990.70
2008,01,04,01,38,990.70
2008,01,04,01,39,990.70
2008,01,04,01,40,990.70
2008,01,04,01,41,990.70
2008,01,04,01,42,991.20
2008,01,04,01,43,991.20
2008,01,04,01,44,991.20
2008,01,04,01,45,991.20
2008,01,04,01,46,991.20
2008,01,04,01,47,991.20
2008,01,04,01,48,991.20
2008,01,04,01,49,991.20
2008,01,04,01,50,991.20
2008,01,04,01,51,991.20
2008,01,04,01,52,990.80
2008,01,04,01,53,990.80
2008,01,04,01,54,990.80
2008,01,04,01,55,990.80
2008,01,04,01,56,990.80
2008,01,04,01,57,990.80
2008,01,04,01,58,990.80
2008,01,04,01,59,990.80
2008,01,04,02,00,990.80
2008,01,04,02,01,990.80
2008,01,04,02,02,990.80
2008,01,04,02,03,990.80
2008,01,04,02,04,990.80
2008,01,04,02,05,990.80
2008,01,04,02,06,990.80
2008,01,04,02,07,990.80
2008,01,04,02,08,990.80
2008,01,04,02,09,990.10
2008,01,04,02,10,990.10
2008,01,04,02,11,990.10
2008,01,04,02,12,990.10
2008,01,04,02,13,990.10
2008,01,04,02,14,990.10
2008,01,04,02,15,990.10
2008,01,04,02,16,990.10
2008,01,04,02,17,990.10
2008,01,04,02,18,990.10
2008,01,04,02,19,990.10
2008,01,04,02,20,990.10
2008,01,04,02,21,990.10
2008,01,04,02,22,990.10
2008,01,04,02,23,990.10
2008,01,04,02,24,990.10
2008,01,04,02,25,990.10
2008,01,04,02,26,989.10
2008,01,04,02,27,989.10
2008,01,04,02,28,989.10
2008,01,04,02,29,989.10
2008,01,04,02,30,989.10
2008,01,04,02,31,989.10
2008,01,04,02,32,989.10
2008,01,04,02,33,989.10
2008,01,04,02,34,989.10
2008,01,04,02,35,989.10
2008,01,04,02,36,989.10
2008,01,04,02,37,989.10
2008,01,04,02,38,989.10
2008,01,04,02,39,989.10
2008,01,04,02,40,989.10
2008,01,04,02,41,989.10
2008,01,04,02,42,989.10
2008,01,04,02,43,989.10
2008,01,04,02,45,989.10
2008,01,04,02,46,989.10
2008,01,04,02,48,989.10
2008,01,04,02,49,989.10
2008,01,04,02,50,989.10
2008,01,04,02,51,989.10
2008,01,04,02,52,989.10
2008,01,04,02,53,989.10
2008,01,04,02,54,989.10
2008,01,04,02,55,989.10
2008,01,04,02,56,989.10
2008,01,04,02,57,989.10
2008,01,04,02,58,989.10
2008,01,04,02,59,989.10
2008,01,04,03,00,989.10
2008,01,04,03,01,988.80
2008,01,04,03,02,988.80
2008,01,04,03,03,988.80
2008,01,04,03,04,988.80
2008,01,04,03,05,988.80
2008,01,04,03,06,988.80
2008,01,04,03,07,988.80
2008,01,04,03,08,988.80
2008,01,04,03,09,988.80
2008,01,04,03,10,988.80
2008,01,04,03,11,988.80
2008,01,04,03,12,988.80
2008,01,04,03,13,988.80
2008,01,04,03,14,988.80
2008,01,04,03,15,988.80
2008,01,04,03,16,988.80
2008,01,04,03,17,988.80
2008,01,04,03,18,988.40
2008,01,04,03,19,988.40
2008,01,04,03,20,988.40
2008,01,04,03,21,988.40
2008,01,04,03,22,988.40
2008,01,04,03,23,988.40
2008,01,04,03,24,988.20
2008,01,04,03,25,988.20
2008,01,04,03,26,988.20
2008,01,04,03,27,988.20
2008,01,04,03,28,988.20
2008,01,04,03,29,988.20
2008,01,04,03,30,988.20
2008,01,04,03,31,988.20
2008,01,04,03,32,988.20
2008,01,04,03,33,988.20
2008,01,04,03,34,988.20
2008,01,04,03,35,988.20
2008,01,04,03,36,988.20
2008,01,04,03,37,988.20
2008,01,04,03,38,988.20
2008,01,04,03,39,988.20
2008,01,04,03,40,988.20
2008,01,04,03,42,987.50
2008,01,04,03,43,987.50
2008,01,04,03,44,987.50
2008,01,04,03,45,987.50
2008,01,04,03,46,987.50
2008,01,04,03,47,987.50
2008,01,04,03,48,987.50
2008,01,04,03,49,987.50
2008,01,04,03,50,987.50
2008,01,04,03,51,987.50
2008,01,04,03,52,987.50
2008,01,04,03,53,987.50
2008,01,04,03,54,987.50
2008,01,04,03,55,987.50
2008,01,04,03,56,986.60
2008,01,04,03,57,986.60
2008,01,04,03,58,986.60
2008,01,04,03,59,986.60
2008,01,04,04,00,986.60
2008,01,04,04,01,986.60
2008,01,04,04,02,986.60
2008,01,04,04,03,986.60
2008,01,04,04,04,986.60
2008,01,04,04,05,986.60
2008,01,04,04,06,986.60
2008,01,04,04,07,986.60
2008,01,04,04,08,986.60
2008,01,04,04,09,986.60
2008,01,04,04,10,986.60
2008,01,04,04,11,986.60
2008,01,04,04,12,986.00
2008,01,04,04,13,986.00
2008,01,04,04,14,986.00
2008,01,04,04,15,986.00
2008,01,04,04,16,986.00
2008,01,04,04,17,986.00
2008,01,04,04,18,986.00
2008,01,04,04,19,986.00
2008,01,04,04,20,986.00
2008,01,04,04,21,986.00
2008,01,04,04,23,985.10
2008,01,04,04,24,985.10
2008,01,04,04,25,985.10
2008,01,04,04,26,985.10
2008,01,04,04,27,985.10
2008,01,04,04,28,985.10
2008,01,04,04,29,985.10
2008,01,04,04,30,985.10
2008,01,04,04,31,985.10
2008,01,04,04,32,985.10
2008,01,04,04,33,985.10
2008,01,04,04,34,985.10
2008,01,04,04,35,985.10
2008,01,04,04,36,985.10
2008,01,04,04,37,985.10
2008,01,04,04,39,984.50
2008,01,04,04,40,984.50
2008,01,04,04,41,984.50
2008,01,04,04,42,984.50
2008,01,04,04,43,984.50
2008,01,04,04,44,984.50
2008,01,04,04,45,984.50
2008,01,04,04,46,984.50
2008,01,04,04,47,984.50
2008,01,04,04,48,984.50
2008,01,04,04,49,984.50
2008,01,04,04,50,984.50
2008,01,04,04,51,984.50
2008,01,04,04,52,984.50
2008,01,04,04,53,984.50
2008,01,04,04,54,984.50
2008,01,04,04,55,984.50
2008,01,04,04,56,983.40
2008,01,04,04,57,983.40
2008,01,04,04,58,983.40
2008,01,04,04,59,983.40
2008,01,04,05,00,983.40
2008,01,04,05,01,983.40
2008,01,04,05,03,983.40
2008,01,04,05,04,983.40
2008,01,04,05,05,983.40
2008,01,04,05,06,983.40
2008,01,04,05,07,983.40
2008,01,04,05,08,983.40
2008,01,04,05,09,983.40
2008,01,04,05,10,983.40
2008,01,04,05,11,983.40
2008,01,04,05,12,983.40
2008,01,04,05,13,983.00
2008,01,04,05,14,983.00
2008,01,04,05,15,983.00
2008,01,04,05,16,983.00
2008,01,04,05,17,983.00
2008,01,04,05,18,983.00
2008,01,04,05,19,983.00
2008,01,04,05,20,983.00
2008,01,04,05,21,983.00
2008,01,04,05,22,983.00
2008,01,04,05,23,983.00
2008,01,04,05,24,983.00
2008,01,04,05,25,983.00
2008,01,04,05,26,983.00
2008,01,04,05,27,983.00
2008,01,04,05,28,983.00
2008,01,04,05,29,983.00
2008,01,04,05,30,982.10
2008,01,04,05,31,982.10
2008,01,04,05,32,982.10
2008,01,04,05,33,982.10
2008,01,04,05,34,982.10
2008,01,04,05,35,982.10
2008,01,04,05,36,982.10
2008,01,04,05,37,981.50
2008,01,04,05,38,981.50
2008,01,04,05,39,981.50
2008,01,04,05,40,981.50
2008,01,04,05,41,981.50
2008,01,04,05,42,981.50
2008,01,04,05,43,981.50
2008,01,04,05,44,981.50
2008,01,04,05,45,981.50
2008,01,04,05,46,981.50
2008,01,04,05,47,981.50
2008,01,04,05,48,981.50
2008,01,04,05,49,981.50
2008,01,04,05,50,981.50
2008,01,04,05,51,981.50
2008,01,04,05,52,981.50
2008,01,04,05,53,981.50
2008,01,04,05,54,981.00
2008,01,04,05,55,981.00
2008,01,04,05,56,981.00
2008,01,04,05,57,981.00
2008,01,04,05,58,981.00
2008,01,04,05,59,981.00
2008,01,04,06,00,981.00
2008,01,04,06,01,981.00
2008,01,04,06,02,981.00
2008,01,04,06,03,981.00
2008,01,04,06,04,981.00
2008,01,04,06,05,981.00
2008,01,04,06,06,981.00
2008,01,04,06,07,981.00
2008,01,04,06,08,981.00
2008,01,04,06,09,981.00
2008,01,04,06,10,980.10
2008,01,04,06,11,980.10
2008,01,04,06,12,980.10
2008,01,04,06,13,980.10
2008,01,04,06,14,980.10
2008,01,04,06,15,980.10
2008,01,04,06,16,980.10
2008,01,04,06,17,980.10
2008,01,04,06,18,980.10
2008,01,04,06,19,980.10
2008,01,04,06,20,980.10
2008,01,04,06,21,980.10
2008,01,04,06,22,980.10
2008,01,04,06,23,980.10
2008,01,04,06,24,980.10
2008,01,04,06,25,980.10
2008,01,04,06,26,980.10
2008,01,04,06,27,979.40
2008,01,04,06,28,979.40
2008,01,04,06,29,979.40
2008,01,04,06,30,979.40
2008,01,04,06,31,979.40
2008,01,04,06,32,979.40
2008,01,04,06,33,979.40
2008,01,04,06,34,979.40
2008,01,04,06,35,979.40
2008,01,04,06,36,979.40
2008,01,04,06,37,979.40
2008,01,04,06,38,979.40
2008,01,04,06,39,979.40
2008,01,04,06,40,979.40
2008,01,04,06,41,979.40
2008,01,04,06,42,979.40
2008,01,04,06,43,978.50
2008,01,04,06,44,978.50
2008,01,04,06,45,978.50
2008,01,04,06,46,978.50
2008,01,04,06,47,978.50
2008,01,04,06,48,978.50
2008,01,04,06,49,978.50
2008,01,04,06,50,978.50
2008,01,04,06,51,978.50
2008,01,04,06,52,978.50
2008,01,04,06,53,978.50
2008,01,04,06,54,978.50
2008,01,04,06,55,978.50
2008,01,04,06,56,978.50
2008,01,04,06,57,978.50
2008,01,04,06,58,978.50
2008,01,04,06,59,978.50
2008,01,04,07,00,977.80
2008,01,04,07,01,977.80
2008,01,04,07,02,977.80
2008,01,04,07,03,977.80
2008,01,04,07,04,977.80
2008,01,04,07,05,977.80
2008,01,04,07,06,977.80
2008,01,04,07,07,977.80
2008,01,04,07,08,977.80
2008,01,04,07,09,977.80
2008,01,04,07,10,977.80
2008,01,04,07,11,977.30
2008,01,04,07,12,977.30
2008,01,04,07,13,977.30
2008,01,04,07,14,977.30
2008,01,04,07,15,977.30
2008,01,04,07,16,977.30
2008,01,04,07,17,977.30
2008,01,04,07,18,977.30
2008,01,04,07,19,977.30
2008,01,04,07,20,977.30
2008,01,04,07,21,977.30
2008,01,04,07,22,977.30
2008,01,04,07,23,977.30
2008,01,04,07,24,977.30
2008,01,04,07,25,977.30
2008,01,04,07,26,977.30
2008,01,04,07,27,977.30
2008,01,04,07,28,976.80
2008,01,04,07,29,976.80
2008,01,04,07,30,976.80
2008,01,04,07,31,976.80
2008,01,04,07,32,976.80
2008,01,04,07,33,976.80
2008,01,04,07,34,976.80
2008,01,04,07,35,976.80
2008,01,04,07,36,976.80
2008,01,04,07,37,976.80
2008,01,04,07,38,976.80
2008,01,04,07,39,976.80
2008,01,04,07,40,976.80
2008,01,04,07,41,976.80
2008,01,04,07,42,976.80
2008,01,04,07,44,976.80
2008,01,04,07,45,975.80
2008,01,04,07,46,975.80
2008,01,04,07,47,975.80
2008,01,04,07,48,975.80
2008,01,04,07,49,975.80
2008,01,04,07,50,975.80
2008,01,04,07,51,975.80
2008,01,04,07,52,975.80
2008,01,04,07,53,975.80
2008,01,04,07,54,975.80
2008,01,04,07,55,975.80
2008,01,04,07,56,975.80
2008,01,04,07,57,975.80
2008,01,04,07,58,975.80
2008,01,04,07,59,975.80
2008,01,04,08,00,975.80
2008,01,04,08,01,975.80
2008,01,04,08,02,975.80
2008,01,04,08,03,975.80
2008,01,04,08,04,975.80
2008,01,04,08,05,975.80
2008,01,04,08,06,975.80
2008,01,04,08,07,975.80
2008,01,04,08,08,975.20
2008,01,04,08,09,975.20
2008,01,04,08,10,975.20
2008,01,04,08,11,975.20
2008,01,04,08,12,975.20
2008,01,04,08,13,975.20
2008,01,04,08,14,975.20
2008,01,04,08,15,975.20
2008,01,04,08,16,975.20
2008,01,04,08,17,975.20
2008,01,04,08,18,975.20
2008,01,04,08,19,975.20
2008,01,04,08,20,975.20
2008,01,04,08,21,975.20
2008,01,04,08,22,975.20
2008,01,04,08,23,975.20
2008,01,04,08,24,975.20
2008,01,04,08,25,975.20
2008,01,04,08,26,974.90
2008,01,04,08,27,974.90
2008,01,04,08,28,974.90
2008,01,04,08,29,974.90
2008,01,04,08,30,974.90
2008,01,04,08,31,974.90
2008,01,04,08,32,974.90
2008,01,04,08,33,974.90
2008,01,04,08,34,974.90
2008,01,04,08,35,974.90
2008,01,04,08,36,974.90
2008,01,04,08,37,974.90
2008,01,04,08,38,974.90
2008,01,04,08,40,974.90
2008,01,04,08,41,974.90
2008,01,04,08,42,974.90
2008,01,04,08,43,974.30
2008,01,04,08,44,974.30
2008,01,04,08,45,974.30
2008,01,04,08,46,974.30
2008,01,04,08,47,974.30
2008,01,04,08,48,974.30
2008,01,04,08,49,974.30
2008,01,04,08,50,974.30
2008,01,04,08,51,974.30
2008,01,04,08,52,974.30
2008,01,04,08,53,974.30
2008,01,04,08,54,973.70
2008,01,04,08,55,973.70
2008,01,04,08,56,973.70
2008,01,04,08,57,973.70
2008,01,04,08,58,973.70
2008,01,04,08,59,973.70
2008,01,04,09,00,973.70
2008,01,04,09,01,973.70
2008,01,04,09,02,973.70
2008,01,04,09,03,973.70
2008,01,04,09,04,973.70
2008,01,04,09,05,973.70
2008,01,04,09,06,973.70
2008,01,04,09,07,973.70
2008,01,04,09,08,973.70
2008,01,04,09,09,973.70
2008,01,04,09,10,973.60
2008,01,04,09,11,973.60
2008,01,04,09,12,973.60
2008,01,04,09,13,973.60
2008,01,04,09,14,973.60
2008,01,04,09,15,973.60
2008,01,04,09,16,973.60
2008,01,04,09,17,973.60
2008,01,04,09,18,973.60
2008,01,04,09,19,973.60
2008,01,04,09,20,973.60
2008,01,04,09,21,973.60
2008,01,04,09,22,973.60
2008,01,04,09,23,973.60
2008,01,04,09,24,973.60
2008,01,04,09,25,973.60
2008,01,04,09,26,973.60
2008,01,04,09,27,973.40
2008,01,04,09,28,973.40
2008,01,04,09,29,973.40
2008,01,04,09,30,973.40
2008,01,04,09,31,973.40
2008,01,04,09,32,973.40
2008,01,04,09,33,973.40
2008,01,04,09,34,973.40
2008,01,04,09,35,973.40
2008,01,04,09,36,973.40
2008,01,04,09,37,973.40
2008,01,04,09,38,973.40
2008,01,04,09,39,973.40
2008,01,04,09,40,973.40
2008,01,04,09,41,973.40
2008,01,04,09,42,973.40
2008,01,04,09,43,973.40
2008,01,04,09,44,973.00
2008,01,04,09,45,973.00
2008,01,04,09,46,973.00
2008,01,04,09,47,973.00
2008,01,04,09,48,973.00
2008,01,04,09,49,973.00
2008,01,04,09,50,973.00
2008,01,04,09,51,973.00
2008,01,04,09,52,973.00
2008,01,04,09,53,973.00
2008,01,04,09,54,973.00
2008,01,04,09,55,973.00
2008,01,04,09,56,973.00
2008,01,04,09,57,973.00
2008,01,04,09,58,973.00
2008,01,04,09,59,973.00
2008,01,04,10,00,973.00
2008,01,04,10,01,972.20
2008,01,04,10,02,972.20
2008,01,04,10,03,972.20
2008,01,04,10,04,972.20
2008,01,04,10,05,972.20
2008,01,04,10,06,972.20
2008,01,04,10,07,972.20
2008,01,04,10,08,972.10
2008,01,04,10,09,972.10
2008,01,04,10,10,972.10
2008,01,04,10,11,972.10
2008,01,04,10,12,972.10
2008,01,04,10,13,972.10
2008,01,04,10,14,972.10
2008,01,04,10,15,972.10
2008,01,04,10,16,972.10
2008,01,04,10,17,972.10
2008,01,04,10,18,972.10
2008,01,04,10,19,972.10
2008,01,04,10,20,972.10
2008,01,04,10,21,972.10
2008,01,04,10,22,972.10
2008,01,04,10,23,972.10
2008,01,04,10,24,972.10
2008,01,04,10,25,971.80
2008,01,04,10,26,971.80
2008,01,04,10,27,971.80
2008,01,04,10,28,971.80
2008,01,04,10,29,971.80
2008,01,04,10,30,971.80
2008,01,04,10,31,971.80
2008,01,04,10,32,971.80
2008,01,04,10,33,971.80
2008,01,04,10,34,971.80
2008,01,04,10,35,971.80
2008,01,04,10,36,971.80
2008,01,04,10,37,971.80
2008,01,04,10,38,971.80
2008,01,04,10,39,971.80
2008,01,04,10,40,971.80
2008,01,04,10,41,972.10
2008,01,04,10,42,972.10
2008,01,04,10,43,972.10
2008,01,04,10,44,972.10
2008,01,04,10,45,972.10
2008,01,04,10,46,972.10
2008,01,04,10,47,972.10
2008,01,04,10,48,972.10
2008,01,04,10,49,972.10
2008,01,04,10,50,972.10
2008,01,04,10,51,972.10
2008,01,04,10,52,972.10
2008,01,04,10,53,972.10
2008,01,04,10,54,972.10
2008,01,04,10,55,972.10
2008,01,04,10,56,972.10
2008,01,04,10,57,972.10
2008,01,04,10,58,972.10
2008,01,04,10,59,972.10
2008,01,04,11,00,972.10
2008,01,04,11,01,972.10
2008,01,04,11,02,972.10
2008,01,04,11,03,972.10
2008,01,04,11,04,972.10
2008,01,04,11,05,972.10
2008,01,04,11,06,972.10
2008,01,04,11,07,972.10
2008,01,04,11,08,972.10
2008,01,04,11,09,972.10
2008,01,04,11,10,972.10
2008,01,04,11,11,972.10
2008,01,04,11,12,972.10
2008,01,04,11,13,972.10
2008,01,04,11,14,972.10
2008,01,04,11,15,972.10
2008,01,04,11,16,972.10
2008,01,04,11,17,972.10
2008,01,04,11,18,972.10
2008,01,04,11,19,972.10
2008,01,04,11,20,972.10
2008,01,04,11,21,972.10
2008,01,04,11,22,972.10
2008,01,04,11,23,972.10
2008,01,04,11,24,972.10
2008,01,04,11,25,972.10
2008,01,04,11,26,972.10
2008,01,04,11,27,972.10
2008,01,04,11,28,972.10
2008,01,04,11,29,972.10
2008,01,04,11,30,972.10
2008,01,04,11,31,972.10
2008,01,04,11,32,972.10
2008,01,04,11,33,972.10
2008,01,04,11,34,972.10
2008,01,04,11,35,972.10
2008,01,04,11,36,972.10
2008,01,04,11,37,972.10
2008,01,04,11,38,972.10
2008,01,04,11,40,972.10
2008,01,04,11,41,972.10
2008,01,04,11,42,972.10
2008,01,04,11,43,972.10
2008,01,04,11,44,972.10
2008,01,04,11,45,972.10
2008,01,04,11,46,972.10
2008,01,04,11,47,972.10
2008,01,04,11,48,972.10
2008,01,04,11,49,972.10
2008,01,04,11,50,972.10
2008,01,04,11,51,972.10
2008,01,04,11,52,972.10
2008,01,04,11,53,972.10
2008,01,04,11,54,972.10
2008,01,04,11,55,972.10
2008,01,04,11,56,972.10
2008,01,04,11,57,972.10
2008,01,04,11,58,972.10
2008,01,04,11,59,972.10
2008,01,04,12,00,972.10
2008,01,04,12,01,972.10
2008,01,04,12,02,972.10
2008,01,04,12,03,972.10
2008,01,04,12,04,972.10
2008,01,04,12,05,972.10
2008,01,04,12,06,972.10
2008,01,04,12,07,972.10
2008,01,04,12,08,972.10
2008,01,04,12,09,972.10
2008,01,04,12,10,972.10
2008,01,04,12,11,972.10
2008,01,04,12,12,972.10
2008,01,04,12,13,972.10
2008,01,04,12,14,972.10
2008,01,04,12,15,972.10
2008,01,04,12,16,972.10
2008,01,04,12,17,972.10
2008,01,04,12,18,972.10
2008,01,04,12,19,972.10
2008,01,04,12,20,972.10
2008,01,04,12,21,972.10
2008,01,04,12,22,972.10
2008,01,04,12,23,972.10
2008,01,04,12,24,972.10
2008,01,04,12,25,972.10
2008,01,04,12,26,972.10
2008,01,04,12,27,972.10
2008,01,04,12,28,972.10
2008,01,04,12,29,972.10
2008,01,04,12,30,972.10
2008,01,04,12,31,972.10
2008,01,04,12,32,972.10
2008,01,04,12,33,972.10
2008,01,04,12,34,972.10
2008,01,04,12,35,972.10
2008,01,04,12,36,972.10
2008,01,04,12,37,972.10
2008,01,04,12,38,972.10
2008,01,04,12,39,972.10
2008,01,04,12,40,972.10
2008,01,04,12,41,972.10
2008,01,04,12,42,972.10
2008,01,04,12,43,972.10
2008,01,04,12,44,972.10
2008,01,04,12,45,972.10
2008,01,04,12,46,972.10
2008,01,04,12,47,972.10
2008,01,04,12,48,972.10
2008,01,04,12,49,972.10
2008,01,04,12,50,972.10
2008,01,04,12,51,972.10
2008,01,04,12,52,972.10
2008,01,04,12,53,972.10
2008,01,04,12,54,972.10
2008,01,04,12,55,972.10
2008,01,04,12,56,972.10
2008,01,04,12,57,972.10
2008,01,04,12,58,972.10
2008,01,04,12,59,972.10
2008,01,04,13,00,972.10
2008,01,04,13,01,972.10
2008,01,04,13,02,972.10
2008,01,04,13,03,972.10
2008,01,04,13,04,972.10
2008,01,04,13,05,972.10
2008,01,04,13,06,972.10
2008,01,04,13,07,972.10
2008,01,04,13,08,972.10
2008,01,04,13,09,972.10
2008,01,04,13,10,972.10
2008,01,04,13,11,972.10
2008,01,04,13,12,972.10
2008,01,04,13,13,972.10
2008,01,04,13,14,972.10
2008,01,04,13,15,972.10
2008,01,04,13,16,972.10
2008,01,04,13,17,972.10
2008,01,04,13,18,972.10
2008,01,04,13,19,972.10
2008,01,04,13,20,972.10
2008,01,04,13,21,972.10
2008,01,04,13,22,972.10
2008,01,04,13,23,972.10
2008,01,04,13,24,972.10
2008,01,04,13,25,972.10
2008,01,04,13,26,972.10
2008,01,04,13,28,972.10
2008,01,04,13,29,972.10
2008,01,04,13,30,972.10
2008,01,04,13,31,972.10
2008,01,04,13,32,972.10
2008,01,04,13,33,972.10
2008,01,04,13,34,972.10
2008,01,04,13,35,972.10
2008,01,04,13,36,972.10
2008,01,04,13,37,972.10
2008,01,04,13,38,972.10
2008,01,04,13,39,971.60
2008,01,04,13,40,971.60
2008,01,04,13,41,971.60
2008,01,04,13,42,971.60
2008,01,04,13,43,971.60
2008,01,04,13,44,971.60
2008,01,04,13,45,971.60
2008,01,04,13,46,971.60
2008,01,04,13,47,971.60
2008,01,04,13,48,971.60
2008,01,04,13,49,971.60
2008,01,04,13,50,971.60
2008,01,04,13,51,971.60
2008,01,04,13,52,971.60
2008,01,04,13,53,971.60
2008,01,04,13,54,971.60
2008,01,04,13,55,971.60
2008,01,04,13,56,971.60
2008,01,04,13,57,971.50
2008,01,04,13,58,971.50
2008,01,04,13,59,971.50
2008,01,04,14,00,971.50
2008,01,04,14,01,971.50
2008,01,04,14,02,971.50
2008,01,04,14,03,971.50
2008,01,04,14,04,971.50
2008,01,04,14,05,971.50
2008,01,04,14,06,971.50
2008,01,04,14,07,971.50
2008,01,04,14,09,971.70
2008,01,04,14,10,971.70
2008,01,04,14,11,971.70
2008,01,04,14,12,971.70
2008,01,04,14,13,971.70
2008,01,04,14,14,971.70
2008,01,04,14,15,971.70
2008,01,04,14,16,971.70
2008,01,04,14,17,971.70
2008,01,04,14,18,971.70
2008,01,04,14,19,971.70
2008,01,04,14,20,971.70
2008,01,04,14,21,971.70
2008,01,04,14,22,971.70
2008,01,04,14,23,971.70
2008,01,04,14,24,971.70
2008,01,04,14,25,971.70
2008,01,04,14,26,971.10
2008,01,04,14,27,971.10
2008,01,04,14,28,971.10
2008,01,04,14,29,971.10
2008,01,04,14,30,971.10
2008,01,04,14,31,971.10
2008,01,04,14,32,971.10
2008,01,04,14,33,971.10
2008,01,04,14,34,971.10
2008,01,04,14,35,971.10
2008,01,04,14,36,971.10
2008,01,04,14,37,971.10
2008,01,04,14,38,971.10
2008,01,04,14,39,971.10
2008,01,04,14,40,971.10
2008,01,04,14,41,971.10
2008,01,04,14,42,971.10
2008,01,04,14,43,971.50
2008,01,04,14,44,971.50
2008,01,04,14,45,971.50
2008,01,04,14,46,971.50
2008,01,04,14,47,971.50
2008,01,04,14,48,971.50
2008,01,04,14,49,971.50
2008,01,04,14,50,971.50
2008,01,04,14,51,971.50
2008,01,04,14,52,971.50
2008,01,04,14,53,971.50
2008,01,04,14,54,971.50
2008,01,04,14,55,971.50
2008,01,04,14,56,971.50
2008,01,04,14,57,971.50
2008,01,04,14,58,971.50
2008,01,04,14,59,971.50
2008,01,04,15,00,971.10
2008,01,04,15,01,971.10
2008,01,04,15,02,971.10
2008,01,04,15,03,971.10
2008,01,04,15,04,971.10
2008,01,04,15,05,971.10
2008,01,04,15,06,971.10
2008,01,04,15,07,971.10
2008,01,04,15,08,971.10
2008,01,04,15,09,971.10
2008,01,04,15,10,971.10
2008,01,04,15,11,971.10
2008,01,04,15,12,971.10
2008,01,04,15,13,971.10
2008,01,04,15,14,971.10
2008,01,04,15,15,971.10
2008,01,04,15,16,971.10
2008,01,04,15,17,971.10
2008,01,04,15,18,971.10
2008,01,04,15,19,971.10
2008,01,04,15,20,971.10
2008,01,04,15,21,971.10
2008,01,04,15,22,971.10
2008,01,04,15,23,971.10
2008,01,04,15,24,971.40
2008,01,04,15,25,971.40
2008,01,04,15,26,971.40
2008,01,04,15,27,971.40
2008,01,04,15,28,971.40
2008,01,04,15,29,971.40
2008,01,04,15,30,971.40
2008,01,04,15,31,971.40
2008,01,04,15,32,971.40
2008,01,04,15,33,971.40
2008,01,04,15,34,971.40
2008,01,04,15,35,971.40
2008,01,04,15,36,971.40
2008,01,04,15,37,971.40
2008,01,04,15,38,971.40
2008,01,04,15,39,971.40
2008,01,04,15,40,971.00
2008,01,04,15,41,971.00
2008,01,04,15,42,971.00
2008,01,04,15,43,971.00
2008,01,04,15,44,971.00
2008,01,04,15,45,971.00
2008,01,04,15,46,971.00
2008,01,04,15,47,971.00
2008,01,04,15,48,971.00
2008,01,04,15,49,971.00
2008,01,04,15,50,971.00
2008,01,04,15,51,971.00
2008,01,04,15,52,971.00
2008,01,04,15,53,971.00
2008,01,04,15,54,971.00
2008,01,04,15,55,971.00
2008,01,04,15,56,971.00
2008,01,04,15,57,970.30
2008,01,04,15,58,970.30
2008,01,04,15,59,970.30
2008,01,04,16,00,970.30
2008,01,04,16,01,970.30
2008,01,04,16,02,970.30
2008,01,04,16,03,970.30
2008,01,04,16,04,970.30
2008,01,04,16,05,970.30
2008,01,04,16,06,970.30
2008,01,04,16,07,970.30
2008,01,04,16,08,970.30
2008,01,04,16,09,970.30
2008,01,04,16,10,970.30
2008,01,04,16,11,970.30
2008,01,04,16,12,970.30
2008,01,04,16,13,970.10
2008,01,04,16,14,970.10
2008,01,04,16,15,970.10
2008,01,04,16,16,970.10
2008,01,04,16,17,970.10
2008,01,04,16,18,970.10
2008,01,04,16,19,970.10
2008,01,04,16,20,970.10
2008,01,04,16,21,970.10
2008,01,04,16,22,970.10
2008,01,04,16,23,969.90
2008,01,04,16,24,969.90
2008,01,04,16,25,969.90
2008,01,04,16,26,969.90
2008,01,04,16,27,969.90
2008,01,04,16,28,969.90
2008,01,04,16,29,969.90
2008,01,04,16,30,969.90
2008,01,04,16,31,969.90
2008,01,04,16,32,969.90
2008,01,04,16,33,969.90
2008,01,04,16,34,969.90
2008,01,04,16,35,969.90
2008,01,04,16,36,969.90
2008,01,04,16,37,969.90
2008,01,04,16,38,969.90
2008,01,04,16,39,969.90
2008,01,04,16,40,969.70
2008,01,04,16,41,969.70
2008,01,04,16,42,969.70
2008,01,04,16,43,969.70
2008,01,04,16,44,969.70
2008,01,04,16,45,969.70
2008,01,04,16,46,969.70
2008,01,04,16,47,969.70
2008,01,04,16,48,969.70
2008,01,04,16,49,969.70
2008,01,04,16,50,969.70
2008,01,04,16,51,969.70
2008,01,04,16,52,969.70
2008,01,04,16,53,969.70
2008,01,04,16,54,969.70
2008,01,04,16,55,969.70
2008,01,04,16,56,969.70
2008,01,04,16,57,969.60
2008,01,04,16,58,969.60
2008,01,04,16,59,969.60
2008,01,04,17,00,969.60